Flag Weather past 2 weeks in Acharnes, Greece

Now
50 °F

Light rain. Mostly cloudy.


Feels Like: 50 °F
Forecast: 49 / 57 °F
Wind: No wind

Location: Elefsis Airport

Current Time: Nov 28, 2014 at 12:14:51 AM

Latest Report: Nov 27, 2014 at 11:20 PM


Visibility: 5 mi

Pressure: 30.15 "Hg

Humidity: 94%

Dew point: 48 °F

Location of AcharnesLocation

Historic Weather in Acharnes — Graph

°F

Acharnes temperature yesterday

Maximum temperature yesterday: 54 °F (at 11:20 AM)
Minimum temperature yesterday: 48 °F (at 1:20 AM)
Average temperature yesterday: 51 °F

Past Weeks' High & Low Weather Summary

 TemperatureHumidityPressure
High73 °F (Nov 17, 1:50 PM)100% (Nov 17, 5:20 PM)30.30 "Hg (Nov 17, 5:20 PM)
Low45 °F (Nov 24, 6:50 AM)32% (Nov 20, 10:50 AM)29.74 "Hg (Nov 14, 4:20 AM)
Average57 °F70%30.06 "Hg
* Reported Nov 12 10:20 PM — Nov 27 10:50 PM, Acharnes, Weather by CustomWeather, © 2014

Note: Actual official high and low records may vary slightly from our data, if they occured in-between our weather recording intervals... More about our weather records

Advertising

Acharnes weather history for previous 24 hours

 ConditionsComfort  
Time TempWeatherWind HumidityBarometerVisibility
10:50 PM
Nov 27
50 °FLight rain. Mostly cloudy.No wind94%30.15 "Hg5 mi
10:20 PM50 °FLight rain. Mostly cloudy.No wind94%30.15 "Hg5 mi
9:50 PM50 °FLight rain. Mostly cloudy.No wind94%30.15 "Hg5 mi
9:20 PM50 °FLight rain. Mostly cloudy.No wind94%30.15 "Hg5 mi
8:50 PM50 °FLight rain. Mostly cloudy.No wind94%30.15 "Hg5 mi
8:20 PM50 °FLight rain. Mostly cloudy.No wind94%30.15 "Hg5 mi
7:50 PM50 °FMostly cloudy.No wind94%30.15 "HgN/A
7:20 PM50 °FLight rain. Mostly cloudy.No wind94%30.12 "Hg6 mi
6:50 PM50 °FLight rain. Mostly cloudy.No wind94%30.12 "HgN/A
6:20 PM52 °FLight rain. Mostly cloudy.No wind82%30.15 "Hg6 mi
5:50 PM52 °FLight rain. Mostly cloudy.3 mph82%30.12 "HgN/A
5:20 PM54 °FDrizzle. Mostly cloudy.No wind72%30.12 "HgN/A
4:50 PM54 °FMostly cloudy.No wind72%30.12 "HgN/A
4:20 PM54 °FMore clouds than sun.5 mph72%30.12 "HgN/A
3:50 PM54 °FDrizzle. More clouds than sun.3 mph72%30.12 "HgN/A
3:20 PM54 °FDrizzle. More clouds than sun.No wind67%30.12 "HgN/A
2:50 PM54 °FDrizzle. More clouds than sun.No wind67%30.12 "HgN/A
2:20 PM54 °FDrizzle. More clouds than sun.No wind63%30.12 "HgN/A
1:50 PM54 °FMore clouds than sun.No wind63%30.12 "HgN/A
1:20 PM54 °FMore clouds than sun.No wind63%30.15 "HgN/A
12:50 PM54 °FOvercast.No wind63%30.15 "HgN/A
12:20 PM54 °FOvercast.No wind63%30.15 "HgN/A
11:50 AM54 °FOvercast.No wind63%30.15 "HgN/A
11:20 AM54 °FOvercast.No wind63%30.15 "HgN/A
10:50 AM52 °FOvercast.No wind67%30.15 "HgN/A
10:20 AM52 °FOvercast.No wind67%30.15 "HgN/A
9:50 AM52 °FOvercast.No wind72%30.15 "HgN/A
9:20 AM50 °FOvercast.3 mph76%30.15 "HgN/A
8:50 AM50 °FOvercast.3 mph76%30.15 "HgN/A
8:20 AM50 °FOvercast.No wind76%30.15 "HgN/A
7:50 AM48 °FOvercast.No wind82%30.15 "HgN/A
7:20 AM48 °FOvercast.No wind82%30.15 "HgN/A
6:50 AM48 °FPassing clouds.No wind82%30.15 "HgN/A
6:20 AM48 °FPartly cloudy.No wind82%30.15 "HgN/A
5:50 AM48 °FPartly cloudy.No wind82%30.12 "HgN/A
4:50 AM48 °FPartly cloudy.No wind76%30.15 "HgN/A
4:20 AM48 °FPartly cloudy.No wind82%30.15 "HgN/A
3:20 AM48 °FPartly cloudy.No wind82%30.15 "HgN/A
2:50 AM48 °FPartly cloudy.No wind82%30.15 "HgN/A
2:20 AM48 °FPartly cloudy.No wind76%30.15 "HgN/A
1:20 AM48 °FPartly cloudy.6 mph76%30.15 "HgN/A
12:50 AM50 °FPartly cloudy.No wind67%30.18 "HgN/A
12:20 AM50 °FPartly cloudy.No wind67%30.18 "HgN/A
Weather by CustomWeather, © 2014

See weather overviewHow to use our weather pages